Radiation Dose at Monitoring Post of Fukushima Daini Nuclear Power Station
Date,Time,MP-1(microSv/h),MP-2(microSv/h),MP-3(microSv/h),MP-4(microSv/h),MP-5(microSv/h),MP-6(microSv/h),MP-7(microSv/h),Wind Direction,Wind Velocity(m/s),Rain
2018/06/01,00:00,0.304,0.189,0.307,0.295,0.295,0.154,0.095,northwest,5.4,Yes
2018/06/01,00:10,0.306,0.190,0.309,0.298,0.293,0.154,0.095,northwest,6.9,Yes
2018/06/01,00:20,0.304,0.191,0.307,0.295,0.295,0.154,0.095,north-northwest,6.2,No
2018/06/01,00:30,0.306,0.189,0.310,0.298,0.292,0.155,0.095,north-northwest,4.8,No
2018/06/01,00:40,0.304,0.190,0.309,0.296,0.294,0.153,0.095,north-northwest,7.5,Yes
2018/06/01,00:50,0.304,0.190,0.310,0.297,0.293,0.155,0.095,north,7.8,Yes
2018/06/01,01:00,0.305,0.190,0.308,0.297,0.295,0.154,0.095,north-northwest,7.8,Yes
2018/06/01,01:10,0.308,0.190,0.309,0.298,0.293,0.156,0.095,north-northwest,7.7,Yes
2018/06/01,01:20,0.307,0.191,0.310,0.297,0.297,0.154,0.095,north-northwest,8.1,Yes
2018/06/01,01:30,0.307,0.192,0.311,0.300,0.294,0.156,0.097,north-northwest,7.4,Yes
2018/06/01,01:40,0.308,0.193,0.311,0.298,0.297,0.155,0.096,northwest,6.3,Yes
2018/06/01,01:50,0.309,0.191,0.310,0.299,0.295,0.155,0.096,northwest,5.2,No
2018/06/01,02:00,0.307,0.191,0.312,0.297,0.296,0.155,0.095,northwest,5.3,Yes
2018/06/01,02:10,0.308,0.191,0.309,0.299,0.294,0.156,0.096,northwest,4.7,Yes
2018/06/01,02:20,0.307,0.191,0.313,0.297,0.296,0.154,0.095,north-northwest,5.8,No
2018/06/01,02:30,0.309,0.192,0.308,0.299,0.295,0.155,0.095,north-northwest,6.3,Yes
2018/06/01,02:40,0.307,0.191,0.311,0.296,0.295,0.155,0.094,north-northwest,6.0,Yes
2018/06/01,02:50,0.308,0.192,0.308,0.299,0.294,0.156,0.095,north,6.7,Yes
2018/06/01,03:00,0.307,0.190,0.310,0.298,0.296,0.155,0.095,north,4.7,Yes
2018/06/01,03:10,0.308,0.192,0.309,0.299,0.295,0.155,0.096,north-northwest,5.1,No
2018/06/01,03:20,0.307,0.190,0.310,0.296,0.295,0.154,0.095,north-northwest,5.3,No
2018/06/01,03:30,0.308,0.191,0.309,0.298,0.294,0.155,0.094,north-northwest,5.7,No
2018/06/01,03:40,0.305,0.191,0.309,0.297,0.295,0.155,0.095,north-northwest,5.5,No
2018/06/01,03:50,0.308,0.189,0.310,0.296,0.296,0.155,0.094,north-northwest,5.1,No
2018/06/01,04:00,0.306,0.191,0.308,0.297,0.294,0.155,0.095,north-northwest,4.3,No
2018/06/01,04:10,0.308,0.190,0.310,0.298,0.295,0.153,0.096,northwest,4.2,No
2018/06/01,04:20,0.305,0.191,0.308,0.297,0.295,0.154,0.095,northwest,4.8,No
2018/06/01,04:30,0.309,0.191,0.310,0.296,0.296,0.154,0.094,northwest,4.4,No
2018/06/01,04:40,0.306,0.190,0.309,0.297,0.294,0.154,0.094,north-northwest,4.7,No
2018/06/01,04:50,0.307,0.190,0.311,0.297,0.295,0.154,0.095,north-northwest,5.7,No
2018/06/01,05:00,0.306,0.190,0.309,0.298,0.292,0.154,0.095,north-northwest,3.9,No
2018/06/01,05:10,0.306,0.190,0.309,0.296,0.294,0.155,0.095,northwest,2.5,No
2018/06/01,05:20,0.307,0.191,0.310,0.299,0.294,0.154,0.095,north-northwest,2.5,No
2018/06/01,05:30,0.307,0.191,0.309,0.297,0.295,0.153,0.094,north,2.0,No
2018/06/01,05:40,0.308,0.190,0.309,0.297,0.293,0.153,0.094,north,3.6,No
2018/06/01,05:50,0.306,0.190,0.308,0.297,0.295,0.154,0.094,north,4.8,No
2018/06/01,06:00,0.307,0.189,0.310,0.297,0.291,0.153,0.094,north,4.3,No
2018/06/01,06:10,0.307,0.190,0.308,0.298,0.294,0.154,0.095,north,4.4,No
2018/06/01,06:20,0.309,0.190,0.310,0.295,0.293,0.154,0.094,north-northwest,5.0,No
2018/06/01,06:30,0.306,0.188,0.308,0.298,0.292,0.154,0.093,north-northwest,5.3,No
2018/06/01,06:40,0.307,0.189,0.309,0.296,0.295,0.153,0.094,north,5.2,No
2018/06/01,06:50,0.305,0.189,0.309,0.297,0.293,0.154,0.094,north-northwest,5.7,No
2018/06/01,07:00,0.307,0.189,0.310,0.297,0.294,0.153,0.094,north-northwest,3.6,No
2018/06/01,07:10,0.308,0.189,0.306,0.296,0.295,0.154,0.093,north-northwest,3.8,No
2018/06/01,07:20,0.305,0.192,0.307,0.297,0.293,0.153,0.093,north-northwest,4.5,No
2018/06/01,07:30,0.309,0.189,0.306,0.295,0.295,0.154,0.094,north-northwest,4.4,No
2018/06/01,07:40,0.306,0.191,0.308,0.297,0.292,0.153,0.094,north,4.9,No
2018/06/01,07:50,0.308,0.190,0.309,0.295,0.295,0.154,0.094,north,5.4,No
2018/06/01,08:00,0.307,0.190,0.308,0.298,0.294,0.154,0.094,north-northwest,5.6,No
2018/06/01,08:10,0.306,0.192,0.312,0.298,0.294,0.153,0.094,north-northwest,7.6,No
2018/06/01,08:20,0.309,0.189,0.309,0.294,0.294,0.154,0.094,north-northwest,8.7,No
2018/06/01,08:30,0.305,0.189,0.306,0.293,0.291,0.152,0.093,north-northwest,10.7,No
2018/06/01,08:40,0.307,0.189,0.309,0.295,0.290,0.153,0.092,north-northwest,9.3,No
2018/06/01,08:50,0.309,0.191,0.309,0.297,0.294,0.154,0.093,north,7.6,No
2018/06/01,09:00,0.306,0.190,0.307,0.296,0.294,0.154,0.093,north-northwest,6.8,No
2018/06/01,09:10,0.305,0.190,0.311,0.295,0.293,0.153,0.094,north,8.9,No
2018/06/01,09:20,0.310,0.192,0.310,0.295,0.293,0.153,0.095,north-northwest,6.1,No
2018/06/01,09:30,0.309,0.191,0.310,0.300,0.296,0.154,0.094,north,7.6,No
2018/06/01,09:40,0.306,0.190,0.311,0.298,0.295,0.154,0.094,north,8.1,No
2018/06/01,09:50,0.310,0.190,0.308,0.296,0.294,0.153,0.093,north,5.8,No
2018/06/01,10:00,0.308,0.193,0.312,0.299,0.295,0.155,0.094,north,7.9,No
2018/06/01,10:10,0.305,0.192,0.313,0.300,0.296,0.154,0.095,north-northwest,4.9,No
2018/06/01,10:20,0.306,0.190,0.310,0.299,0.293,0.155,0.095,north,7.4,No
2018/06/01,10:30,0.311,0.190,0.307,0.298,0.292,0.154,0.095,north-northwest,6.0,No
2018/06/01,10:40,0.308,0.189,0.307,0.297,0.292,0.155,0.094,north-northeast,5.9,No
2018/06/01,10:50,0.308,0.190,0.306,0.296,0.296,0.154,0.094,north-northeast,6.0,No
2018/06/01,11:00,0.305,0.191,0.308,0.297,0.296,0.154,0.093,northeast,7.9,No
2018/06/01,11:10,0.305,0.190,0.308,0.296,0.295,0.154,0.094,northeast,6.6,No
2018/06/01,11:20,0.310,0.189,0.308,0.296,0.293,0.155,0.095,northeast,7.2,No
2018/06/01,11:30,0.311,0.190,0.306,0.296,0.292,0.156,0.095,northeast,5.8,No
2018/06/01,11:40,0.309,0.188,0.308,0.297,0.297,0.155,0.094,northeast,5.3,No
2018/06/01,11:50,0.306,0.191,0.309,0.296,0.297,0.154,0.094,northeast,5.7,No
2018/06/01,12:00,0.308,0.192,0.313,0.298,0.294,0.155,0.095,northeast,6.9,No
2018/06/01,12:10,0.312,0.192,0.314,0.301,0.294,0.155,0.095,east-northeast,5.0,No
2018/06/01,12:20,0.310,0.191,0.312,0.301,0.299,0.156,0.094,north,1.4,No
2018/06/01,12:30,0.307,0.191,0.310,0.299,0.296,0.155,0.094,north,4.1,No
2018/06/01,12:40,0.311,0.193,0.310,0.297,0.293,0.154,0.096,north,4.8,No
2018/06/01,12:50,0.310,0.193,0.315,0.302,0.297,0.155,0.095,north-northeast,5.2,No
2018/06/01,13:00,0.308,0.192,0.312,0.300,0.297,0.154,0.093,north,3.1,No
2018/06/01,13:10,0.313,0.194,0.312,0.298,0.293,0.154,0.095,north-northeast,4.4,No
2018/06/01,13:20,0.310,0.192,0.313,0.299,0.296,0.155,0.096,north-northeast,4.5,No
2018/06/01,13:30,0.309,0.192,0.308,0.302,0.296,0.156,0.093,north,3.4,No
2018/06/01,13:40,0.312,0.195,0.304,0.298,0.295,0.154,0.094,north,4.2,No
2018/06/01,13:50,0.309,0.192,0.310,0.297,0.294,0.154,0.095,north-northeast,3.9,No
2018/06/01,14:00,0.307,0.192,0.312,0.299,0.294,0.155,0.095,north-northeast,4.2,No
2018/06/01,14:10,0.309,0.193,0.311,0.301,0.298,0.156,0.094,north,5.0,No
2018/06/01,14:20,0.312,0.194,0.309,0.300,0.296,0.155,0.095,north-northeast,4.3,No
2018/06/01,14:30,0.309,0.192,0.308,0.298,0.295,0.154,0.095,north-northeast,3.6,No
2018/06/01,14:40,0.308,0.192,0.314,0.297,0.294,0.155,0.094,north-northeast,2.9,No
2018/06/01,14:50,0.311,0.192,0.311,0.300,0.298,0.154,0.095,north-northeast,3.8,No
2018/06/01,15:00,0.310,0.191,0.309,0.299,0.296,0.153,0.095,northeast,3.8,No
2018/06/01,15:10,0.310,0.193,0.313,0.301,0.294,0.153,0.095,north-northeast,4.6,No
2018/06/01,15:20,0.313,0.192,0.313,0.302,0.298,0.155,0.096,north-northeast,4.4,No
2018/06/01,15:30,0.309,0.191,0.310,0.292,0.296,0.155,0.095,north,3.9,No
2018/06/01,15:40,0.307,0.191,0.310,0.302,0.294,0.154,0.095,north,5.5,No
2018/06/01,15:50,0.308,0.193,0.314,0.299,0.293,0.154,0.095,north,5.6,No
2018/06/01,16:00,0.312,0.192,0.312,0.300,0.291,0.155,0.095,north,4.5,No
2018/06/01,16:10,0.310,0.193,0.310,0.302,0.293,0.155,0.095,north-northeast,3.9,No
2018/06/01,16:20,0.308,0.192,0.315,0.297,0.297,0.154,0.096,north-northeast,3.2,No
2018/06/01,16:30,0.312,0.193,0.312,0.301,0.296,0.154,0.094,northeast,2.5,No
2018/06/01,16:40,0.311,0.193,0.314,0.299,0.298,0.155,0.095,north-northeast,1.9,No
2018/06/01,16:50,0.312,0.192,0.315,0.301,0.299,0.156,0.095,north-northeast,2.9,No
2018/06/01,17:00,0.311,0.194,0.312,0.301,0.296,0.156,0.095,north-northeast,2.5,No
2018/06/01,17:10,0.309,0.192,0.314,0.298,0.297,0.156,0.094,east,1.5,No
2018/06/01,17:20,0.311,0.194,0.312,0.301,0.299,0.155,0.094,east-northeast,0.9,No
2018/06/01,17:30,0.311,0.193,0.313,0.299,0.294,0.155,0.095,northeast,1.5,No
2018/06/01,17:40,0.308,0.193,0.312,0.302,0.293,0.155,0.095,northeast,0.7,No
2018/06/01,17:50,0.307,0.193,0.313,0.301,0.295,0.155,0.095,southeast,0.6,No
2018/06/01,18:00,0.312,0.193,0.313,0.300,0.298,0.156,0.095,-,CALM,No
2018/06/01,18:10,0.310,0.193,0.314,0.301,0.294,0.154,0.094,-,CALM,No
2018/06/01,18:20,0.311,0.193,0.313,0.299,0.299,0.156,0.094,south,0.7,No
2018/06/01,18:30,0.311,0.192,0.312,0.302,0.298,0.154,0.095,northeast,0.7,No
2018/06/01,18:40,0.309,0.193,0.313,0.301,0.296,0.155,0.094,north-northeast,1.3,No
2018/06/01,18:50,0.313,0.192,0.312,0.301,0.300,0.155,0.095,-,CALM,No
2018/06/01,19:00,0.310,0.193,0.313,0.299,0.295,0.156,0.095,south,0.7,No
2018/06/01,19:10,0.312,0.192,0.313,0.302,0.298,0.154,0.094,-,CALM,No
2018/06/01,19:20,0.311,0.194,0.315,0.300,0.297,0.156,0.094,-,CALM,No
2018/06/01,19:30,0.311,0.193,0.312,0.302,0.298,0.155,0.095,-,CALM,No
2018/06/01,19:40,0.311,0.193,0.314,0.298,0.295,0.156,0.094,-,CALM,No
2018/06/01,19:50,0.312,0.193,0.314,0.301,0.298,0.156,0.095,-,CALM,No
2018/06/01,20:00,0.310,0.194,0.313,0.301,0.297,0.156,0.094,southwest,0.7,No
2018/06/01,20:10,0.312,0.193,0.315,0.303,0.298,0.155,0.096,south-southwest,0.8,No
2018/06/01,20:20,0.311,0.194,0.313,0.301,0.296,0.155,0.095,-,CALM,No
2018/06/01,20:30,0.312,0.194,0.315,0.302,0.298,0.155,0.095,southwest,1.1,No
2018/06/01,20:40,0.310,0.192,0.313,0.301,0.295,0.155,0.095,southwest,1.9,No
2018/06/01,20:50,0.312,0.194,0.315,0.302,0.299,0.154,0.095,south-southwest,1.5,No
2018/06/01,21:00,0.311,0.193,0.312,0.300,0.295,0.156,0.095,south-southwest,1.3,No
2018/06/01,21:10,0.312,0.194,0.314,0.301,0.299,0.155,0.095,south-southwest,1.1,No
2018/06/01,21:20,0.310,0.195,0.313,0.301,0.297,0.156,0.095,-,CALM,No
2018/06/01,21:30,0.313,0.193,0.315,0.300,0.298,0.155,0.095,south,0.6,No
2018/06/01,21:40,0.311,0.194,0.314,0.303,0.295,0.155,0.095,south-southwest,0.6,No
2018/06/01,21:50,0.312,0.193,0.314,0.301,0.297,0.156,0.095,south,1.6,No
2018/06/01,22:00,0.310,0.195,0.313,0.302,0.297,0.156,0.096,south-southwest,2.0,No
2018/06/01,22:10,0.311,0.193,0.313,0.301,0.297,0.155,0.095,south-southwest,2.2,No
2018/06/01,22:20,0.311,0.194,0.314,0.302,0.297,0.156,0.096,south-southwest,2.2,No
2018/06/01,22:30,0.310,0.194,0.312,0.301,0.295,0.156,0.095,south-southwest,2.0,No
2018/06/01,22:40,0.312,0.193,0.313,0.302,0.298,0.155,0.095,south-southwest,2.2,No
2018/06/01,22:50,0.310,0.194,0.313,0.301,0.294,0.156,0.095,south-southwest,2.3,No
2018/06/01,23:00,0.313,0.193,0.314,0.302,0.298,0.155,0.095,south-southwest,2.1,No
2018/06/01,23:10,0.311,0.194,0.314,0.301,0.296,0.155,0.095,south-southwest,2.4,No
2018/06/01,23:20,0.311,0.194,0.314,0.301,0.299,0.156,0.095,south-southwest,1.8,No
2018/06/01,23:30,0.310,0.194,0.315,0.302,0.295,0.156,0.095,south-southwest,2.1,No
2018/06/01,23:40,0.312,0.193,0.313,0.299,0.298,0.156,0.095,south-southwest,1.8,No
2018/06/01,23:50,0.311,0.193,0.314,0.302,0.295,0.155,0.096,south-southwest,1.7,No
